[[{"header":{"parameterUnit":"m.s-1","parameterCategory":2,"la1":30.2991,"la2":30.254,"lo1":-89.0895,"lo2":-89.0444,"dy":0.0017,"dx":0.0017,"nx":28,"ny":28,"refTime":"2024-04-12T21:00:00:Z","depth":"0","parameterNumber":2,"parameterNumberName":"U-component_of_CURRENTS"},"data":[0,0,0,0,0,0,0,0,0,0,0,0,0,0,0,0,0,0,0,0,0,0,0,0,0,0,0,0,0,0,0,0,0,0,0,0,0,0,0,0,0,0,0,0,0,0,0,0,0,0,0,0,0,0,0,0,0,0,0.3611,0.361,0,0.3534,0.3533,0.3532,0.3475,0.3475,0.3475,0.3474,0.3443,0.3443,0.3442,0,0,0,0,0,0,0,0,0,0,0,0,0,0.3694,0.3692,0.3611,0.361,0.3609,0.3534,0.3533,0.3532,0.3476,0.3475,0.3475,0.3474,0.3443,0.3443,0.3442,0,0,0,0,0,0,0,0,0,0,0,0,0,0.364,0.3692,0.3611,0.3573,0.3569,0.3534,0.3533,0.3531,0.3476,0.3475,0.3474,0.3474,0.3443,0.3443,0.3442,0.3449,0,0,0.344,0.3439,0,0,0,0,0,0,0,0,0.3643,0.3637,0.3579,0.3576,0.3571,0.3515,0.355,0.3507,0.3476,0.351,0.3474,0.3474,0.3472,0.3469,0.3454,0.3448,0.3447,0.344,0.3439,0.3439,0.3439,0,0,0,0,0,0,0,0.3647,0.364,0.358,0.3579,0.3573,0.3554,0.3546,0.3541,0.3496,0.3507,0.3503,0.3496,0.347,0.3455,0.3453,0.3446,0.344,0.3439,0.3439,0.3438,0.3559,0.3563,0,0,0,0,0,0,0.366,0.3644,0.3582,0.3577,0.3608,0.3553,0.3544,0.3532,0.3494,0.3488,0.3497,0.3494,0.3456,0.3454,0.3452,0.3562,0.3439,0.3438,0.3438,0.3556,0.356,0.3564,0,0,0,0,0,0,0.3662,0.3655,0.3585,0.361,0.36,0.3553,0.354,0.3531,0.3522,0.3486,0.348,0.3497,0.3456,0.3453,0.3465,0.3556,0.3438,0.3437,0.3552,0.3557,0.3562,0.3716,0,0,0,0,0,0,0.3665,0.3656,0.3659,0.3611,0.3599,0.3581,0.354,0.353,0.3519,0.3514,0.3485,0.3481,0.3455,0.3466,0.3464,0.3553,0.3437,0.3547,0.3554,0.356,0.3706,0.3726,0.3742,0,0,0,0,0,0.3668,0.3669,0.366,0.3653,0.3602,0.3582,0.3575,0.3539,0.352,0.3526,0.3509,0.3482,0.351,0.3467,0.3464,0.3555,0.3544,0.3552,0.356,0.3698,0.3722,0.3742,0,0,0,0,0,0,0.3698,0.3662,0.3651,0.3639,0.3623,0.3574,0.3574,0.355,0.3538,0.354,0.3501,0.3497,0.356,0.3527,0.3481,0.3614,0.3534,0.3542,0.364,0.3662,0.368,0.3726,0.3436,0,0,0,0,0,0.3711,0.3705,0.3672,0.3665,0.3662,0.3623,0.3612,0.3593,0.3571,0.3564,0.3549,0.3553,0.3592,0.3596,0.3614,0.3657,0.3681,0.3724,0.3743,0.3758,0.3797,0.3903,0.3935,0.3591,0.3591,0.3591,0,0,0.3715,0.3699,0.3692,0.3673,0.3655,0.3674,0.3615,0.3611,0.3646,0.3567,0.3612,0.3615,0.3619,0.3689,0.3716,0.3669,0.387,0.3768,0.3782,0.3812,0.3916,0.3949,0.3979,0.3596,0.3595,0.3595,0,0,0.3726,0.3717,0.3719,0.3724,0.3716,0.3711,0.3718,0.3692,0.3704,0.3736,0.3723,0.3782,0.3785,0.3839,0.386,0.3989,0.397,0.3988,0.4108,0.4211,0.4241,0.4267,0.4345,0.4377,0.3988,0.3988,0.3988,0,0.3731,0.3738,0.3719,0.374,0.3759,0.3738,0.377,0.3789,0.3777,0.3818,0.3775,0.3882,0.3881,0.4017,0.4067,0.404,0.4068,0.4019,0.4237,0.4264,0.4288,0.4361,0.4395,0.3996,0.3995,0.3995,0.3994,0,0.3747,0.3772,0.3781,0.3813,0.3839,0.3859,0.3894,0.3936,0.3952,0.3976,0.4097,0.4108,0.4171,0.42,0.4169,0.4356,0.4311,0.4254,0.4181,0.4332,0.4399,0.4431,0.4008,0.4005,0.4003,0.4001,0,0,0.3695,0.3774,0.3777,0.3829,0.3883,0.3907,0.4008,0.4091,0.4177,0.4212,0.4329,0.4428,0.4431,0.446,0.4452,0.4546,0.4743,0.4473,0.4474,0.4552,0.4958,0.4822,0.4843,0.4709,0.4715,0.4721,0.4937,0,0.3709,0.3776,0.3818,0.3916,0.3963,0.4026,0.4126,0.4216,0.4288,0.4399,0.448,0.4583,0.453,0.4573,0.4669,0.4724,0.4834,0.469,0.48,0.4805,0.4667,0.4879,0.4587,0.4746,0.4968,0.4973,0.4977,0,0.3701,0.376,0.3849,0.3999,0.4026,0.4098,0.4272,0.4357,0.4526,0.4583,0.4707,0.4747,0.492,0.4833,0.5047,0.4945,0.4984,0.502,0.5027,0.4874,0.473,0.4631,0.4795,0.4683,0.5025,0.5021,0.5018,0,0.3671,0.3787,0.387,0.3913,0.407,0.4152,0.4247,0.4414,0.4518,0.4711,0.4804,0.497,0.5071,0.5166,0.5227,0.5152,0.5439,0.5334,0.5265,0.5254,0.5019,0.4976,0.5089,0.5522,0.5522,0.5521,0.552,0,0.3669,0.3736,0.3868,0.3918,0.405,0.4162,0.4322,0.4439,0.4625,0.4767,0.4892,0.5027,0.5162,0.5307,0.5329,0.5408,0.5527,0.5357,0.5331,0.5061,0.5021,0.4916,0.4848,0.5529,0.5527,0.5526,0.5524,0,0.3628,0.3702,0.3815,0.3986,0.4038,0.4139,0.4342,0.4466,0.4638,0.4831,0.4903,0.513,0.5314,0.5429,0.5608,0.554,0.5462,0.5615,0.5277,0.5207,0.4964,0.4914,0.4869,0.4737,0.558,0.5578,0.5577,0,0.3609,0.3665,0.384,0.3915,0.3996,0.4146,0.4255,0.4444,0.4571,0.4873,0.4966,0.522,0.534,0.5556,0.5515,0.557,0.5444,0.5328,0.5142,0.4983,0.4911,0.4747,0.4627,0.4902,0.4895,0.4889,0.4885,0,0.3609,0.3674,0.3786,0.392,0.4039,0.4152,0.4316,0.4402,0.4633,0.4777,0.4983,0.5108,0.5297,0.5214,0.5284,0.5266,0.5038,0.5212,0.5153,0.4506,0.4234,0.4079,0.4725,0.4835,0.484,0.4844,0.4847,0.4849,0.3621,0.3687,0.383,0.3955,0.4062,0.414,0.4163,0.432,0.4452,0.4582,0.4829,0.4863,0.4906,0.4934,0.4909,0.4672,0.4713,0.4492,0.4487,0.4371,0.411,0.4645,0.4644,0.4648,0.4651,0.4654,0.4656,0,0.3639,0.3725,0.3851,0.3966,0.4006,0.4076,0.4182,0.4144,0.4177,0.4321,0.4417,0.4382,0.4287,0.4299,0.4146,0.3975,0.3793,0.3881,0.3597,0.3549,0.4124,0.3956,0.3675,0.3675,0.3676,0.3676,0.3676,0.3676,0.366,0.3767,0.3826,0.3876,0.391,0.3849,0.3838,0.3789,0.3814,0.3734,0.3659,0.3737,0.3874,0.3818,0.3624,0.3523,0.3299,0.3087,0.3197,0.36,0.3656,0.371,0.3541,0.3177,0.3177,0.2422,0.2416,0.2411]},{"header":{"parameterUnit":"m.s-1","parameterCategory":2,"la1":30.2991,"la2":30.254,"lo1":-89.0895,"lo2":-89.0444,"dy":0.0017,"dx":0.0017,"nx":28,"ny":28,"refTime":"2024-04-12T21:00:00:Z","depth":"0","parameterNumber":3,"parameterNumberName":"V-component_of_CURRENTS"},"data":[0,0,0,0,0,0,0,0,0,0,0,0,0,0,0,0,0,0,0,0,0,0,0,0,0,0,0,0,0,0,0,0,0,0,0,0,0,0,0,0,0,0,0,0,0,0,0,0,0,0,0,0,0,0,0,0,0,0,0.0125,0.0124,0,0.0076,0.0076,0.0075,0.0051,0.0051,0.0051,0.0051,0.0006,0.0005,0.0003,0,0,0,0,0,0,0,0,0,0,0,0,0,0.0162,0.0162,0.0125,0.0124,0.0124,0.0076,0.0076,0.0075,0.0051,0.0051,0.0051,0.0051,0.0006,0.0005,0.0003,0,0,0,0,0,0,0,0,0,0,0,0,0,0.0133,0.0162,0.0125,0.0106,0.0104,0.0076,0.0076,0.0075,0.0051,0.0051,0.0051,0.0051,0.0007,0.0005,0.0003,-0.0007,0,0,-0.0002,-0.0003,0,0,0,0,0,0,0,0,0.0135,0.0132,0.0109,0.0107,0.0105,0.007,0.0072,0.0047,0.0051,0.0071,0.0051,0.0051,0.0027,0.0024,0.0015,-0.0009,-0.0011,-0.0002,-0.0004,-0.0004,-0.0005,0,0,0,0,0,0,0,0.0137,0.0134,0.0106,0.0109,0.0106,0.0088,0.0084,0.0067,0.005,0.007,0.0068,0.0062,0.0026,0.0017,0.0014,-0.0012,-0.0002,-0.0004,-0.0005,-0.0006,-0.0026,-0.0026,0,0,0,0,0,0,0.0144,0.0136,0.0107,0.0104,0.012,0.0087,0.0083,0.0081,0.005,0.0046,0.0062,0.0061,0.002,0.0016,0.0012,0.0031,-0.0004,-0.0006,-0.0007,-0.0027,-0.0026,-0.0026,0,0,0,0,0,0,0.0145,0.0142,0.0109,0.0118,0.0113,0.0087,0.0085,0.008,0.0075,0.0045,0.004,0.0062,0.002,0.0015,0.0006,0.0028,-0.0007,-0.0008,-0.0028,-0.0027,-0.0026,0.0047,0,0,0,0,0,0,0.0147,0.0143,0.0147,0.0119,0.0113,0.0102,0.0084,0.0079,0.0071,0.0069,0.0043,0.0038,0.0019,0.0009,0.0004,0.0025,-0.001,-0.0028,-0.0027,-0.0026,0.0044,0.005,0.0056,0,0,0,0,0,0.0148,0.0157,0.0147,0.0144,0.0118,0.0103,0.0098,0.0079,0.0071,0.0073,0.0056,0.0039,0.0012,0.0008,0.0002,0.0023,-0.0029,-0.0027,-0.0026,0.0042,0.0049,0.0056,0,0,0,0,0,0,0.0177,0.0155,0.0143,0.0145,0.0128,0.0099,0.01,0.0084,0.0071,0.0072,0.0043,0.0038,0.0039,0.0017,0.0014,0.0018,-0.001,-0.001,0.0043,0.005,0.0056,0.0102,-0.0011,0,0,0,0,0,0.0184,0.0185,0.0158,0.0161,0.0154,0.0127,0.0119,0.0106,0.0089,0.0083,0.0065,0.0047,0.0038,0.0034,0.0018,0.002,0.0019,0.0029,0.0034,0.004,0.0073,0.0089,0.01,-0.0022,-0.0022,-0.0022,0,0,0.0195,0.0184,0.0183,0.0167,0.0152,0.0158,0.0123,0.0116,0.0128,0.008,0.0092,0.0065,0.0041,0.0046,0.0045,0.0033,0.0069,0.0041,0.0046,0.0077,0.0092,0.0104,0.0115,-0.0021,-0.0021,-0.0021,0,0,0.0222,0.0208,0.0219,0.0211,0.0194,0.0181,0.0182,0.0157,0.0154,0.0153,0.0127,0.0124,0.0096,0.0097,0.0091,0.0121,0.0096,0.01,0.0173,0.0187,0.0198,0.0208,0.0205,0.0215,0.0106,0.0106,0.0107,0,0.0237,0.0251,0.022,0.0232,0.0239,0.0198,0.0221,0.0209,0.0187,0.0203,0.0168,0.0169,0.0132,0.0171,0.017,0.0139,0.0132,0.0149,0.0198,0.0207,0.0216,0.0212,0.0221,0.011,0.011,0.0109,0.0109,0,0.0272,0.0287,0.0294,0.0301,0.0302,0.0314,0.0297,0.0303,0.029,0.0286,0.0312,0.0271,0.0284,0.0256,0.0216,0.0264,0.0232,0.0201,0.0187,0.0234,0.0224,0.0233,0.0115,0.0114,0.0113,0.0112,0,0,0.0304,0.0319,0.0324,0.0354,0.0345,0.0359,0.038,0.0406,0.0456,0.042,0.0493,0.0445,0.0433,0.0426,0.0381,0.038,0.0406,0.0316,0.0315,0.0326,0.0427,0.0365,0.0368,0.0378,0.0381,0.0382,0.039,0,0.0348,0.0397,0.039,0.0452,0.0481,0.0469,0.0508,0.0525,0.0533,0.0588,0.0561,0.0601,0.0495,0.0515,0.0495,0.0443,0.0433,0.0406,0.037,0.037,0.032,0.0378,0.0361,0.0364,0.0397,0.0399,0.04,0,0.0391,0.0424,0.049,0.0557,0.0572,0.0607,0.0688,0.0718,0.0768,0.078,0.0807,0.0787,0.0797,0.0697,0.0645,0.0629,0.0539,0.048,0.0478,0.0411,0.0325,0.0324,0.0377,0.0193,0.0412,0.0411,0.041,0,0.0445,0.0502,0.0568,0.0585,0.0644,0.0693,0.0734,0.0787,0.0856,0.0922,0.0994,0.0974,0.1011,0.0902,0.0759,0.0709,0.0697,0.0616,0.0478,0.0471,0.045,0.0437,0.0339,0.0585,0.0585,0.0585,0.0585,0,0.0503,0.056,0.0607,0.0647,0.0758,0.0772,0.0904,0.0936,0.1034,0.1168,0.1112,0.1224,0.1065,0.103,0.085,0.0706,0.0769,0.052,0.0485,0.0469,0.0459,0.029,0.0184,0.0586,0.0586,0.0586,0.0586,0,0.0559,0.0581,0.067,0.0751,0.0787,0.0873,0.1012,0.1119,0.1186,0.1368,0.1408,0.1438,0.1397,0.1212,0.1063,0.0855,0.0588,0.0623,0.0604,0.0565,0.0228,0.0127,0.0002,-0.007,0.0476,0.0474,0.0473,0,0.0593,0.0642,0.0749,0.0824,0.0871,0.0996,0.1101,0.1187,0.1318,0.1518,0.1633,0.1654,0.1707,0.1448,0.1092,0.0789,0.0595,0.0544,0.0437,0.0235,0.0097,0.0012,-0.0045,0.0429,0.0428,0.0427,0.0426,0,0.0674,0.071,0.079,0.0932,0.1051,0.1191,0.135,0.147,0.1623,0.1796,0.2015,0.2079,0.1836,0.1535,0.1085,0.0855,0.0402,0.0509,0.0326,0.0085,-0.0034,-0.0127,0.038,0.0416,0.0417,0.0418,0.0418,0.0419,0.0745,0.0821,0.0928,0.1071,0.1208,0.1391,0.1527,0.172,0.1958,0.223,0.2271,0.2386,0.1914,0.1309,0.0979,0.0325,0.0328,0.0101,0.0007,-0.0053,-0.0155,0.0318,0.029,0.029,0.029,0.029,0.029,0,0.0843,0.0932,0.1067,0.1245,0.1411,0.1458,0.1705,0.1863,0.2162,0.2391,0.2575,0.2379,0.1809,0.1212,0.0332,-0.0106,-0.0249,-0.0334,-0.045,-0.0475,-0.0024,-0.0061,-0.0196,-0.0196,-0.0196,-0.0196,-0.0196,-0.0195,0.0908,0.1051,0.112,0.1396,0.1524,0.1747,0.189,0.2123,0.2315,0.2574,0.2627,0.2635,0.2142,0.065,-0.0348,-0.0555,-0.0797,-0.0898,-0.1003,-0.071,-0.0676,-0.0644,-0.0704,-0.0971,-0.0972,-0.1407,-0.1412,-0.1415]}],[{"header":{"parameterUnit":"m.s-1","parameterCategory":2,"la1":30.2991,"la2":30.254,"lo1":-89.0895,"lo2":-89.0444,"dy":0.0017,"dx":0.0017,"nx":28,"ny":28,"refTime":"2024-04-12T21:00:00:Z","depth":"2","parameterNumber":2,"parameterNumberName":"U-component_of_CURRENTS"},"data":[0,0,0,0,0,0,0,0,0,0,0,0,0,0,0,0,0,0,0,0,0,0,0,0,0,0,0,0,0,0,0,0,0,0,0,0,0,0,0,0,0,0,0,0,0,0,0,0,0,0,0,0,0,0,0,0,0,0,0.2984,0.2984,0,0.2982,0.2981,0.2981,0.2959,0.2959,0.2959,0.2959,0.2947,0.2946,0.2946,0,0,0,0,0,0,0,0,0,0,0,0,0,0.295,0.2951,0.2984,0.2984,0.2985,0.2982,0.2981,0.2981,0.2959,0.2959,0.2959,0.2959,0.2947,0.2946,0.2946,0,0,0,0,0,0,0,0,0,0,0,0,0,0.2954,0.2951,0.2984,0.2977,0.2977,0.2982,0.2981,0.2981,0.2959,0.2959,0.2959,0.2959,0.2947,0.2946,0.2946,0.2948,0,0,0.2945,0.2945,0,0,0,0,0,0,0,0,0.2954,0.2955,0.2978,0.2977,0.2977,0.2975,0.2965,0.2971,0.296,0.2961,0.2959,0.2959,0.2958,0.2957,0.2951,0.2947,0.2947,0.2945,0.2945,0.2945,0.2945,0,0,0,0,0,0,0,0.2954,0.2955,0.2978,0.2978,0.2978,0.2968,0.2968,0.2966,0.2957,0.2961,0.2961,0.2968,0.2957,0.2951,0.295,0.2947,0.2945,0.2945,0.2945,0.2944,0.3048,0.305,0,0,0,0,0,0,0.2964,0.2955,0.2979,0.2979,0.297,0.2969,0.2969,0.2972,0.2957,0.2956,0.2968,0.2967,0.2952,0.2951,0.295,0.303,0.2945,0.2944,0.2944,0.3045,0.3048,0.3051,0,0,0,0,0,0,0.2963,0.2966,0.2979,0.297,0.2972,0.297,0.2974,0.2972,0.298,0.2963,0.2961,0.298,0.2951,0.295,0.2969,0.3026,0.2944,0.2944,0.3041,0.3046,0.305,0.314,0,0,0,0,0,0,0.2962,0.2966,0.2973,0.2971,0.2973,0.2993,0.2974,0.2972,0.2986,0.2985,0.2973,0.297,0.2951,0.2969,0.2968,0.3025,0.2944,0.3038,0.3043,0.3048,0.3134,0.3147,0.3159,0,0,0,0,0,0.2961,0.2973,0.2974,0.2977,0.2983,0.2994,0.2994,0.2988,0.2987,0.2994,0.2994,0.2972,0.3005,0.297,0.2969,0.3026,0.3035,0.3042,0.3048,0.3128,0.3145,0.3159,0,0,0,0,0,0,0.2963,0.2973,0.2973,0.2988,0.2996,0.2992,0.3002,0.3001,0.3005,0.301,0.299,0.2988,0.3038,0.3018,0.2981,0.3077,0.3024,0.3031,0.3086,0.3102,0.3114,0.3153,0.2943,0,0,0,0,0,0.2969,0.2978,0.2988,0.3,0.301,0.301,0.3016,0.3016,0.302,0.3022,0.3021,0.3033,0.3063,0.3067,0.3084,0.3115,0.3147,0.316,0.3173,0.3184,0.3218,0.332,0.3345,0.3073,0.3073,0.3073,0,0,0.2971,0.2981,0.2984,0.3001,0.3007,0.3032,0.3012,0.3031,0.3065,0.3021,0.3067,0.3076,0.3084,0.3134,0.3155,0.3121,0.3276,0.3192,0.3201,0.323,0.3329,0.3356,0.338,0.3078,0.3077,0.3076,0,0,0.2978,0.2993,0.3002,0.3022,0.3045,0.3053,0.3066,0.3081,0.3102,0.3138,0.3141,0.3193,0.3199,0.3242,0.3257,0.3353,0.3347,0.335,0.3435,0.3532,0.3556,0.3577,0.3642,0.3668,0.3347,0.3347,0.3348,0,0.2979,0.3,0.3007,0.3033,0.3066,0.3071,0.3106,0.3129,0.3152,0.3202,0.3166,0.3267,0.3267,0.3371,0.3404,0.3386,0.342,0.3368,0.355,0.3571,0.3591,0.3653,0.3681,0.3353,0.3352,0.3351,0.3351,0,0.2995,0.3025,0.304,0.3078,0.3112,0.3144,0.3189,0.3225,0.3253,0.3299,0.3406,0.3413,0.3483,0.3492,0.347,0.3622,0.3593,0.3559,0.3509,0.3624,0.3682,0.3709,0.336,0.3358,0.3357,0.3355,0,0,0.2967,0.3035,0.3045,0.3086,0.3148,0.318,0.3253,0.3342,0.3425,0.3461,0.3575,0.3642,0.3673,0.3697,0.3691,0.3764,0.3924,0.372,0.3723,0.3782,0.4125,0.3953,0.3965,0.3913,0.3918,0.3923,0.4104,0,0.2981,0.3039,0.3081,0.3162,0.3201,0.3262,0.3347,0.3437,0.3506,0.3615,0.3683,0.379,0.3744,0.3787,0.3861,0.3916,0.4002,0.3878,0.4008,0.4013,0.3843,0.3994,0.3663,0.3784,0.413,0.4135,0.4138,0,0.298,0.303,0.31,0.3232,0.3263,0.3312,0.3465,0.356,0.3719,0.3776,0.3888,0.3943,0.4086,0.4009,0.4191,0.4108,0.4145,0.4167,0.4174,0.4007,0.3893,0.3728,0.382,0.4183,0.418,0.4176,0.4173,0,0.2954,0.3053,0.3116,0.3155,0.3292,0.335,0.3447,0.3607,0.372,0.3901,0.397,0.4139,0.4214,0.4312,0.4355,0.43,0.4521,0.4451,0.4338,0.4325,0.4069,0.4023,0.4609,0.4609,0.4609,0.4608,0.4608,0,0.2957,0.3015,0.3102,0.3144,0.3255,0.3369,0.3514,0.3628,0.3807,0.3953,0.4066,0.4161,0.4295,0.4409,0.4442,0.4473,0.4607,0.4404,0.4383,0.4086,0.4042,0.4398,0.4372,0.4615,0.4613,0.4612,0.4611,0,0.2919,0.2978,0.3059,0.3191,0.3236,0.3329,0.3524,0.3642,0.3805,0.3977,0.4045,0.4234,0.4363,0.4455,0.4616,0.4563,0.4628,0.4601,0.4223,0.4153,0.4347,0.4324,0.4526,0.4522,0.4518,0.4515,0.4513,0,0.2898,0.2934,0.3061,0.3121,0.3176,0.3312,0.3416,0.3612,0.3711,0.3998,0.4056,0.4256,0.4318,0.4467,0.4449,0.4492,0.4574,0.4189,0.4026,0.4391,0.4352,0.4333,0.4314,0.3733,0.3724,0.3717,0.3712,0,0.2886,0.2928,0.2993,0.3088,0.3179,0.3289,0.3421,0.3488,0.3731,0.3825,0.3979,0.408,0.4205,0.4083,0.4122,0.4098,0.4151,0.4041,0.4588,0.3773,0.3649,0.3607,0.3615,0.3649,0.3655,0.366,0.3663,0.3666,0.2869,0.2892,0.2971,0.3053,0.3159,0.3237,0.3254,0.3367,0.3472,0.3569,0.3762,0.3761,0.3822,0.3686,0.3594,0.353,0.3801,0.3637,0.3658,0.3687,0.3531,0.3404,0.3329,0.3333,0.3337,0.334,0.3343,0,0.2824,0.2876,0.2949,0.3029,0.3075,0.3163,0.3233,0.3184,0.3185,0.331,0.3343,0.31,0.303,0.3096,0.2907,0.2902,0.2869,0.2775,0.2712,0.2777,0.2835,0.2633,0.2195,0.2191,0.2187,0.2184,0,0,0.2819,0.2813,0.2824,0.2869,0.2959,0.2927,0.2912,0.2842,0.2838,0.2749,0.2712,0.2895,0.303,0.2577,0.2514,0.2325,0.2528,0.2232,0.3163,0.3157,0.3209,0.3354,0.3119,0,0,0,0,0]},{"header":{"parameterUnit":"m.s-1","parameterCategory":2,"la1":30.2991,"la2":30.254,"lo1":-89.0895,"lo2":-89.0444,"dy":0.0017,"dx":0.0017,"nx":28,"ny":28,"refTime":"2024-04-12T21:00:00:Z","depth":"2","parameterNumber":3,"parameterNumberName":"V-component_of_CURRENTS"},"data":[0,0,0,0,0,0,0,0,0,0,0,0,0,0,0,0,0,0,0,0,0,0,0,0,0,0,0,0,0,0,0,0,0,0,0,0,0,0,0,0,0,0,0,0,0,0,0,0,0,0,0,0,0,0,0,0,0,0,-0.0001,-0.0002,0,-0.0039,-0.0039,-0.004,-0.0059,-0.0059,-0.0059,-0.0059,-0.0098,-0.0099,-0.01,0,0,0,0,0,0,0,0,0,0,0,0,0,0.002,0.0019,-0.0001,-0.0002,-0.0002,-0.0039,-0.0039,-0.004,-0.0059,-0.0059,-0.0059,-0.0059,-0.0098,-0.0099,-0.0101,0,0,0,0,0,0,0,0,0,0,0,0,0,-0.0001,0.0019,-0.0001,-0.0016,-0.0017,-0.0039,-0.0039,-0.004,-0.0059,-0.0059,-0.0059,-0.0059,-0.0098,-0.0099,-0.0101,-0.0111,0,0,-0.0106,-0.0106,0,0,0,0,0,0,0,0,0.0,-0.0002,-0.0013,-0.0015,-0.0017,-0.0044,-0.0047,-0.0064,-0.0059,-0.0043,-0.0059,-0.0059,-0.008,-0.0083,-0.0091,-0.0113,-0.0115,-0.0106,-0.0107,-0.0107,-0.0108,0,0,0,0,0,0,0,0.0002,-0.0001,-0.0017,-0.0014,-0.0016,-0.0032,-0.0035,-0.005,-0.0062,-0.0045,-0.0046,-0.005,-0.0081,-0.0089,-0.0092,-0.0116,-0.0106,-0.0107,-0.0108,-0.0109,-0.0131,-0.013,0,0,0,0,0,0,0.0009,0.0001,-0.0015,-0.0018,-0.0008,-0.0032,-0.0035,-0.0035,-0.0062,-0.0066,-0.005,-0.0051,-0.0086,-0.009,-0.0093,-0.008,-0.0107,-0.0109,-0.011,-0.0131,-0.013,-0.013,0,0,0,0,0,0,0.0009,0.0008,-0.0014,-0.0009,-0.0013,-0.0033,-0.0033,-0.0036,-0.004,-0.0065,-0.0069,-0.005,-0.0087,-0.0091,-0.0099,-0.0083,-0.011,-0.0111,-0.0131,-0.0131,-0.013,-0.0071,0,0,0,0,0,0,0.001,0.0008,0.0011,-0.0009,-0.0013,-0.002,-0.0033,-0.0037,-0.0043,-0.0044,-0.0067,-0.0071,-0.0087,-0.0096,-0.01,-0.0085,-0.0112,-0.0132,-0.0131,-0.013,-0.0073,-0.0068,-0.0064,0,0,0,0,0,0.0011,0.0018,0.0012,0.0009,-0.0009,-0.0019,-0.0023,-0.0037,-0.0043,-0.0041,-0.0055,-0.007,-0.0094,-0.0097,-0.0102,-0.0087,-0.0132,-0.0131,-0.0131,-0.0075,-0.0069,-0.0064,0,0,0,0,0,0,0.003,0.0016,0.0009,0.0011,-0.0001,-0.0022,-0.0022,-0.0033,-0.0044,-0.0043,-0.0066,-0.0071,-0.0072,-0.009,-0.0093,-0.0092,-0.0115,-0.0115,-0.0072,-0.0066,-0.0061,-0.0028,-0.0114,0,0,0,0,0,0.0035,0.0037,0.0019,0.0022,0.0017,-0.0002,-0.0008,-0.0017,-0.003,-0.0035,-0.005,-0.0065,-0.0073,-0.0078,-0.0092,-0.0092,-0.0104,-0.0087,-0.0082,-0.0078,-0.0054,-0.006,-0.0053,-0.0127,-0.0127,-0.0127,0,0,0.0043,0.0036,0.0037,0.0026,0.0015,0.0023,-0.0005,-0.0009,0.0002,-0.0037,-0.0028,-0.005,-0.0071,-0.0069,-0.0071,-0.0081,-0.0067,-0.0077,-0.0073,-0.0051,-0.0058,-0.005,-0.0044,-0.0127,-0.0127,-0.0127,0,0,0.0066,0.0054,0.0066,0.006,0.0049,0.004,0.0042,0.0024,0.0021,0.0021,0.0,-0.0006,-0.0028,-0.0031,-0.0037,-0.0015,-0.0043,-0.0029,0.0025,0.0019,0.0026,0.0032,0.0012,0.0016,-0.0025,-0.0025,-0.0025,0,0.0078,0.0093,0.0067,0.008,0.0088,0.0054,0.0077,0.0066,0.005,0.0063,0.0033,0.0027,-0.0003,0.0022,0.0023,-0.0001,-0.0017,0.0006,0.0027,0.0033,0.0038,0.0017,0.002,-0.0022,-0.0022,-0.0022,-0.0023,0,0.0111,0.0125,0.0132,0.0142,0.0144,0.0156,0.0143,0.0146,0.0134,0.0131,0.0144,0.0104,0.011,0.0087,0.0059,0.0084,0.0056,0.0033,0.0018,0.0049,0.0024,0.0027,-0.0017,-0.0018,-0.0019,-0.002,0,0,0.0141,0.0155,0.0161,0.019,0.0183,0.0198,0.0213,0.0234,0.0274,0.0236,0.0289,0.0244,0.0228,0.022,0.0181,0.0164,0.0164,0.0115,0.0113,0.0104,0.0142,0.0074,0.007,0.0141,0.0142,0.0143,0.0106,0,0.0182,0.0232,0.0223,0.0282,0.0313,0.0297,0.0329,0.0341,0.0341,0.0378,0.0339,0.0367,0.0277,0.0291,0.0256,0.0201,0.0175,0.0176,0.0106,0.0104,0.0048,0.0072,0.0108,0.0073,0.0108,0.0108,0.0108,0,0.0222,0.0258,0.0319,0.0383,0.0396,0.0423,0.0487,0.0515,0.0541,0.0545,0.0548,0.052,0.0505,0.0422,0.0336,0.0339,0.025,0.0186,0.0183,0.0108,0.0042,0.0049,0.0076,0.0112,0.0111,0.0111,0.0111,0,0.0277,0.0332,0.0393,0.0408,0.0462,0.0497,0.0536,0.0571,0.0636,0.0667,0.0718,0.0669,0.0676,0.0562,0.041,0.0383,0.0306,0.0255,0.0107,0.0101,0.0114,0.0106,0.0196,0.0196,0.0197,0.0197,0.0197,0,0.0331,0.0386,0.0427,0.0464,0.0563,0.0575,0.0688,0.071,0.0787,0.0901,0.0822,0.089,0.0711,0.0638,0.0475,0.0301,0.0354,0.0131,0.0095,0.0131,0.0126,0.0147,0.0142,0.0195,0.0196,0.0196,0.0196,0,0.0384,0.0403,0.0489,0.0559,0.0589,0.0667,0.0796,0.0892,0.0935,0.1082,0.1109,0.1071,0.0962,0.0758,0.0577,0.0399,0.0235,0.0154,0.0195,0.0163,0.0014,0.0013,-0.0001,-0.0004,-0.0006,-0.0008,-0.0009,0,0.0415,0.046,0.056,0.0631,0.0668,0.0784,0.0881,0.0958,0.1081,0.1208,0.1303,0.123,0.1198,0.0876,0.0562,0.0261,0.0213,0.0078,0.0023,0.0032,-0.0002,0.0,0.0001,0.0061,0.006,0.006,0.0059,0,0.049,0.0521,0.0598,0.0733,0.084,0.0979,0.1128,0.1242,0.1372,0.1481,0.1605,0.1582,0.1269,0.0961,0.0515,0.0312,0.0122,0.0051,0.0089,0.009,0.0084,0.0052,0.0053,0.0053,0.0054,0.0054,0.0054,0.0055,0.0554,0.0625,0.0726,0.0862,0.0993,0.1174,0.1303,0.1473,0.1665,0.1824,0.1797,0.1752,0.1393,0.0814,0.0451,0.0064,0.008,-0.0063,-0.0057,-0.0051,-0.0052,-0.0063,-0.0122,-0.0122,-0.0123,-0.0123,-0.0123,0,0.0641,0.0728,0.0857,0.1025,0.1185,0.1237,0.1474,0.1606,0.183,0.1926,0.1979,0.1634,0.1283,0.0868,0.0301,-0.0048,-0.0055,-0.0172,-0.0092,-0.0084,-0.0077,-0.0077,-0.0156,-0.0157,-0.0158,-0.0159,0,0,0.0698,0.0832,0.0899,0.1162,0.129,0.1502,0.164,0.1808,0.1922,0.1997,0.1961,0.1858,0.1396,0.0969,0.0501,0.0177,0.0123,0.0105,0.0171,0.0329,0.034,0.0026,0.0039,0,0,0,0,0]}],[{"header":{"parameterUnit":"m.s-1","parameterCategory":2,"la1":30.2991,"la2":30.254,"lo1":-89.0895,"lo2":-89.0444,"dy":0.0017,"dx":0.0017,"nx":28,"ny":28,"refTime":"2024-04-12T21:00:00:Z","depth":"4","parameterNumber":2,"parameterNumberName":"U-component_of_CURRENTS"},"data":[0,0,0,0,0,0,0,0,0,0,0,0,0,0,0,0,0,0,0,0,0,0,0,0,0,0,0,0,0,0,0,0,0,0,0,0,0,0,0,0,0,0,0,0,0,0,0,0,0,0,0,0,0,0,0,0,0,0,0.1862,0.1863,0,0.1942,0.1943,0.1944,0.1999,0.2,0.2,0.2001,0.2063,0.2064,0.2065,0,0,0,0,0,0,0,0,0,0,0,0,0,0.1752,0.1753,0.1862,0.1863,0.1864,0.1942,0.1943,0.1944,0.1999,0.2,0.2001,0.2001,0.2063,0.2064,0.2065,0,0,0,0,0,0,0,0,0,0,0,0,0,0.1809,0.1754,0.1861,0.1904,0.1909,0.1942,0.1943,0.1944,0.1998,0.2,0.2001,0.2002,0.2063,0.2064,0.2066,0.2052,0,0,0.207,0.2071,0,0,0,0,0,0,0,0,0.1806,0.1812,0.1896,0.1901,0.1907,0.1965,0.1927,0.198,0.1998,0.196,0.2001,0.2002,0.203,0.2035,0.2042,0.2055,0.2057,0.207,0.2071,0.2072,0.2072,0,0,0,0,0,0,0,0.1801,0.1809,0.189,0.1898,0.1904,0.1918,0.1927,0.1937,0.1985,0.1964,0.1969,0.1984,0.2033,0.2041,0.2044,0.2058,0.207,0.2071,0.2072,0.2073,0.2158,0.2159,0,0,0,0,0,0,0.1798,0.1805,0.1887,0.1892,0.1862,0.1919,0.1929,0.1942,0.1985,0.1994,0.1983,0.1986,0.2038,0.2042,0.2046,0.2122,0.2072,0.2073,0.2074,0.2157,0.2158,0.216,0,0,0,0,0,0,0.1796,0.1805,0.1884,0.1854,0.1866,0.1921,0.1934,0.1943,0.1993,0.2,0.2009,0.2029,0.2039,0.2044,0.2088,0.2121,0.2074,0.2075,0.2155,0.2157,0.2159,0.2216,0,0,0,0,0,0,0.1792,0.1803,0.1829,0.1854,0.1867,0.1925,0.1934,0.1944,0.2,0.2006,0.2042,0.2046,0.204,0.2086,0.209,0.2123,0.2076,0.2153,0.2156,0.2158,0.2212,0.2219,0.2226,0,0,0,0,0,0.1788,0.1808,0.1829,0.1841,0.1895,0.1926,0.1935,0.1974,0.2001,0.2024,0.2053,0.2047,0.2106,0.2089,0.2092,0.2126,0.2152,0.2155,0.2158,0.2209,0.2218,0.2226,0,0,0,0,0,0,0.1776,0.1816,0.184,0.1875,0.1912,0.1938,0.1969,0.1998,0.2039,0.2059,0.2064,0.207,0.2123,0.2116,0.2098,0.2159,0.2128,0.2132,0.2166,0.2174,0.2181,0.2196,0.2077,0,0,0,0,0,0.1785,0.1813,0.1851,0.1884,0.1905,0.1947,0.1974,0.2004,0.2036,0.2058,0.2081,0.2107,0.2131,0.2148,0.2164,0.2195,0.2216,0.222,0.2227,0.2233,0.2248,0.2319,0.2335,0.217,0.217,0.217,0,0,0.1792,0.1818,0.1837,0.1885,0.1917,0.1944,0.1966,0.2018,0.205,0.2056,0.2113,0.2137,0.2147,0.2185,0.2207,0.2188,0.2288,0.2237,0.2242,0.2254,0.2325,0.2341,0.2355,0.2172,0.2172,0.2172,0,0,0.18,0.1843,0.1865,0.1893,0.1951,0.1974,0.1999,0.2048,0.2086,0.2137,0.2154,0.2202,0.2231,0.2247,0.2257,0.2312,0.2326,0.2321,0.2366,0.2435,0.2449,0.2462,0.2498,0.2514,0.232,0.232,0.232,0,0.1815,0.1836,0.1879,0.1901,0.1927,0.1989,0.2014,0.2057,0.2118,0.2151,0.2165,0.2253,0.2259,0.2316,0.2334,0.2329,0.2366,0.2332,0.2445,0.2459,0.2471,0.2505,0.2521,0.2323,0.2322,0.2322,0.2322,0,0.1823,0.1852,0.1868,0.1914,0.1951,0.1983,0.2041,0.2096,0.2152,0.2191,0.2283,0.2315,0.2374,0.2378,0.2373,0.2465,0.2461,0.245,0.2426,0.2491,0.2522,0.2538,0.2327,0.2326,0.2325,0.2324,0,0,0.1815,0.1864,0.1872,0.1882,0.1958,0.1977,0.2053,0.2119,0.2173,0.2258,0.234,0.2393,0.245,0.2467,0.2488,0.2538,0.2644,0.254,0.2542,0.2577,0.2795,0.2609,0.2608,0.2669,0.2673,0.2675,0.2777,0,0.181,0.1838,0.187,0.1897,0.1913,0.1984,0.2031,0.211,0.2199,0.2293,0.2383,0.2467,0.2475,0.2528,0.2591,0.2645,0.2694,0.2617,0.2724,0.2727,0.2556,0.2623,0.2686,0.2789,0.2793,0.2795,0.2797,0,0.1794,0.1817,0.1845,0.1872,0.1886,0.1922,0.202,0.2072,0.2223,0.2301,0.2441,0.2527,0.2657,0.2646,0.2798,0.2761,0.279,0.2812,0.2816,0.2636,0.2571,0.2713,0.2827,0.2825,0.2822,0.282,0.2819,0,0.1743,0.1783,0.1802,0.1816,0.1874,0.1913,0.196,0.2088,0.2164,0.2347,0.2452,0.2604,0.2727,0.2809,0.2893,0.2869,0.3035,0.2998,0.2851,0.2838,0.2951,0.2936,0.309,0.309,0.309,0.309,0.309,0,0.1691,0.1699,0.1783,0.1786,0.1812,0.1877,0.1956,0.2025,0.2196,0.2292,0.2475,0.2602,0.2784,0.2909,0.2941,0.2956,0.3087,0.2874,0.286,0.2968,0.2954,0.2962,0.2945,0.3094,0.3093,0.3092,0.3091,0,0.1601,0.1661,0.1677,0.1755,0.1786,0.181,0.1953,0.2009,0.2183,0.2342,0.2421,0.2661,0.2814,0.2944,0.3075,0.3003,0.3028,0.2988,0.3101,0.3089,0.2769,0.2755,0.2836,0.283,0.2825,0.2821,0.2818,0,0.155,0.1552,0.1647,0.1672,0.1709,0.1788,0.1836,0.1994,0.2074,0.2351,0.2406,0.2649,0.2786,0.2845,0.2965,0.3011,0.297,0.2944,0.2845,0.2769,0.2749,0.2742,0.2734,0.2811,0.2809,0.2808,0.2807,0,0.1433,0.1487,0.1506,0.1572,0.1627,0.168,0.1775,0.1836,0.202,0.222,0.2364,0.2476,0.264,0.2748,0.2804,0.2824,0.2941,0.2894,0.2902,0.2809,0.274,0.2723,0.2721,0.2791,0.2793,0.2794,0.2795,0,0.1351,0.1349,0.14,0.1442,0.1517,0.1544,0.1611,0.171,0.1818,0.2117,0.2163,0.2414,0.2619,0.2652,0.2706,0.2716,0.2669,0.2553,0.2578,0.2598,0.247,0.2345,0.2275,0,0,0,0,0,0.1263,0.1252,0.1266,0.1308,0.1382,0.1434,0.1547,0.1629,0.1844,0.1884,0.2021,0.2162,0.2293,0.2423,0.2388,0.2579,0.2656,0.2521,0.2529,0.27,0.2719,0.259,0,0,0,0,0,0,0.1198,0.1208,0.1215,0.1196,0.1225,0.1279,0.1359,0.1486,0.1522,0.1761,0.1854,0.2029,0.2195,0.2319,0.2361,0.239,0.2343,0.2669,0.2662,0.269,0.2707,0.2722,0.2596,0,0,0,0,0]},{"header":{"parameterUnit":"m.s-1","parameterCategory":2,"la1":30.2991,"la2":30.254,"lo1":-89.0895,"lo2":-89.0444,"dy":0.0017,"dx":0.0017,"nx":28,"ny":28,"refTime":"2024-04-12T21:00:00:Z","depth":"4","parameterNumber":3,"parameterNumberName":"V-component_of_CURRENTS"},"data":[0,0,0,0,0,0,0,0,0,0,0,0,0,0,0,0,0,0,0,0,0,0,0,0,0,0,0,0,0,0,0,0,0,0,0,0,0,0,0,0,0,0,0,0,0,0,0,0,0,0,0,0,0,0,0,0,0,0,-0.0002,-0.0003,0,-0.003,-0.003,-0.003,-0.0044,-0.0044,-0.0044,-0.0044,-0.0074,-0.0075,-0.0076,0,0,0,0,0,0,0,0,0,0,0,0,0,0.0014,0.0014,-0.0002,-0.0003,-0.0003,-0.003,-0.003,-0.003,-0.0044,-0.0044,-0.0044,-0.0044,-0.0074,-0.0075,-0.0076,0,0,0,0,0,0,0,0,0,0,0,0,0,-0.0001,0.0014,-0.0002,-0.0013,-0.0014,-0.003,-0.003,-0.0031,-0.0044,-0.0044,-0.0044,-0.0044,-0.0073,-0.0075,-0.0076,-0.0084,0,0,-0.008,-0.008,0,0,0,0,0,0,0,0,-0.0,-0.0002,-0.0011,-0.0012,-0.0013,-0.0033,-0.0035,-0.0048,-0.0044,-0.0033,-0.0044,-0.0044,-0.006,-0.0063,-0.0068,-0.0085,-0.0087,-0.008,-0.008,-0.0081,-0.0081,0,0,0,0,0,0,0,0.0001,-0.0001,-0.0013,-0.0011,-0.0013,-0.0024,-0.0026,-0.0038,-0.0047,-0.0034,-0.0035,-0.0038,-0.0061,-0.0067,-0.0069,-0.0087,-0.008,-0.0081,-0.0081,-0.0082,-0.0088,-0.0088,0,0,0,0,0,0,0.0006,0.0,-0.0013,-0.0014,-0.0006,-0.0024,-0.0027,-0.0027,-0.0047,-0.005,-0.0038,-0.0038,-0.0065,-0.0068,-0.007,-0.0055,-0.0081,-0.0082,-0.0083,-0.0089,-0.0088,-0.0087,0,0,0,0,0,0,0.0007,0.0005,-0.0011,-0.0008,-0.001,-0.0025,-0.0025,-0.0028,-0.0032,-0.0049,-0.0052,-0.0039,-0.0065,-0.0069,-0.0073,-0.0057,-0.0083,-0.0084,-0.0089,-0.0089,-0.0088,-0.004,0,0,0,0,0,0,0.0007,0.0006,0.0007,-0.0007,-0.001,-0.0016,-0.0025,-0.0028,-0.0033,-0.0034,-0.0051,-0.0054,-0.0065,-0.0071,-0.0075,-0.0059,-0.0085,-0.009,-0.0089,-0.0088,-0.0042,-0.0038,-0.0034,0,0,0,0,0,0.0008,0.0012,0.0008,0.0006,-0.0008,-0.0016,-0.0018,-0.0029,-0.0033,-0.0033,-0.0042,-0.0054,-0.0067,-0.0072,-0.0076,-0.006,-0.0091,-0.0089,-0.0088,-0.0044,-0.0039,-0.0034,0,0,0,0,0,0,0.002,0.001,0.0005,0.0006,-0.0002,-0.0018,-0.0019,-0.0027,-0.0034,-0.0034,-0.005,-0.0054,-0.0051,-0.0064,-0.0069,-0.0059,-0.0079,-0.0079,-0.0045,-0.0039,-0.0035,-0.0022,-0.0086,0,0,0,0,0,0.0024,0.0025,0.0012,0.0013,0.001,-0.0004,-0.0009,-0.0015,-0.0024,-0.0028,-0.0039,-0.0047,-0.005,-0.0051,-0.006,-0.0057,-0.0084,-0.0048,-0.0044,-0.004,-0.0032,-0.0062,-0.006,-0.0083,-0.0083,-0.0083,0,0,0.0029,0.0024,0.0024,0.0016,0.0008,0.0017,-0.0007,-0.001,0.0002,-0.003,-0.0018,-0.0035,-0.0047,-0.004,-0.0039,-0.0048,-0.0049,-0.0038,-0.0035,-0.0029,-0.0061,-0.0059,-0.0057,-0.0082,-0.0083,-0.0083,0,0,0.0046,0.0035,0.0045,0.0042,0.0035,0.0029,0.0031,0.0018,0.0016,0.002,0.0005,-0.0001,-0.0009,-0.0011,-0.0012,0.001,-0.0028,0.0006,0.0042,0.0012,0.0013,0.0014,-0.0025,-0.0028,0.0011,0.0011,0.0011,0,0.0054,0.0068,0.0046,0.0059,0.0067,0.004,0.0061,0.0055,0.0044,0.005,0.0032,0.0025,0.0009,0.0026,0.0034,0.0021,-0.001,0.0024,0.0017,0.0018,0.0018,-0.0023,-0.0026,0.0014,0.0014,0.0013,0.0013,0,0.0081,0.0096,0.0102,0.0114,0.0116,0.0128,0.012,0.0123,0.0116,0.0109,0.0114,0.0086,0.0086,0.0077,0.0062,0.0065,0.0038,0.0023,0.0004,0.0023,-0.0021,-0.0026,0.0017,0.0016,0.0016,0.0015,0,0,0.0097,0.0119,0.0124,0.0151,0.0151,0.0163,0.018,0.0194,0.0216,0.0189,0.0213,0.0192,0.0167,0.0164,0.0138,0.0109,0.0078,0.007,0.0067,0.0031,-0.0001,-0.0012,-0.0019,0.0057,0.0056,0.0056,-0.0035,0,0.0132,0.0178,0.0176,0.0231,0.0258,0.0249,0.0274,0.028,0.0272,0.0282,0.0247,0.0253,0.0204,0.0205,0.0168,0.0105,0.0069,0.0103,-0.0014,-0.0017,-0.0029,-0.0023,0.0055,-0.0039,-0.004,-0.0041,-0.0042,0,0.0163,0.0197,0.0254,0.031,0.0321,0.0348,0.0389,0.0412,0.0408,0.0397,0.038,0.0343,0.031,0.0261,0.0155,0.0176,0.0095,0.0033,0.0028,0.0,-0.0037,-0.0061,-0.0051,-0.005,-0.005,-0.0049,-0.0048,0,0.0199,0.0255,0.0311,0.0327,0.0376,0.0407,0.0439,0.0449,0.0488,0.0473,0.0485,0.042,0.0405,0.0293,0.0162,0.0156,0.003,0.0007,-0.0082,-0.0085,-0.007,-0.007,-0.0072,-0.0072,-0.0072,-0.0072,-0.0071,0,0.0239,0.0289,0.0337,0.037,0.045,0.0466,0.0547,0.0552,0.0584,0.0633,0.0557,0.0562,0.041,0.0319,0.0184,0.0037,0.0044,-0.0075,-0.0105,-0.0049,-0.0045,-0.0074,-0.0073,-0.0075,-0.0074,-0.0074,-0.0073,0,0.0272,0.0298,0.0376,0.0444,0.0469,0.0533,0.0632,0.0689,0.0698,0.0756,0.0758,0.0674,0.0546,0.0381,0.0197,0.0083,-0.0068,-0.0124,-0.0055,-0.008,-0.0172,-0.0167,-0.023,-0.0231,-0.0232,-0.0232,-0.0233,0,0.0293,0.0334,0.043,0.0486,0.0523,0.0622,0.069,0.0739,0.0801,0.0823,0.0851,0.0748,0.0667,0.0407,0.0212,-0.0049,-0.0088,-0.0174,-0.0172,-0.0163,-0.0186,-0.018,-0.0174,-0.0235,-0.0235,-0.0235,-0.0235,0,0.0343,0.0376,0.0442,0.0547,0.0631,0.0741,0.084,0.0888,0.0947,0.0957,0.0934,0.0793,0.0647,0.042,0.0215,0.0026,-0.0122,-0.0184,-0.0184,-0.0183,-0.0169,-0.019,-0.0184,-0.0238,-0.0238,-0.0238,-0.0237,0,0.0381,0.0434,0.0513,0.0612,0.0719,0.0822,0.0877,0.095,0.1008,0.102,0.1005,0.0838,0.0742,0.0458,0.0269,0.0082,0.0029,-0.0038,-0.0046,-0.0045,0.003,0.0075,0.006,0,0,0,0,0,0.0414,0.0475,0.057,0.0679,0.0787,0.085,0.0959,0.1007,0.1049,0.1048,0.1035,0.0896,0.0618,0.0495,0.0308,0.0229,-0.0021,-0.0,-0.0106,-0.0256,-0.0252,-0.0198,0,0,0,0,0,0,0.0438,0.0525,0.0572,0.0714,0.0796,0.0921,0.0992,0.1025,0.1031,0.1037,0.0899,0.084,0.0572,0.073,0.0303,0.0244,0.0148,-0.0124,-0.0129,-0.0258,-0.0255,-0.0252,-0.0194,0,0,0,0,0]}]]